Preview of NWS' New Version of Forecast
This preview is not operational and should not be used for support decisions.

Regional Weather Roundup (RWR)

Issued by National Weather Service (NWS)

                            
000
ASUS46 KPQR 200410
RWROR 

OREGON REGIONAL WEATHER ROUNDUP
NATIONAL WEATHER SERVICE PORTLAND OR
900 PM PDT MON AUG 19 2019

NOTE: "FAIR" INDICATES FEW OR NO CLOUDS BELOW 12,000 FEET WITH
NO SIGNIFICANT WEATHER AND/OR OBSTRUCTIONS TO VISIBILITY.

ORZ001>013-200500-
NORTHWEST OREGON

  
CITY           SKY/WX    TMP DP  RH WIND       PRES   REMARKS
ASTORIA        PTCLDY    64  55  72 NW6       29.95S                  
TILLAMOOK      PTCLDY    61  52  72 CALM      29.96S                  
NEWPORT        CLEAR     57  54  88 CALM      29.98R                  
FLORENCE       FAIR      61  54  77 CALM      29.94S                  
PORTLAND       PTCLDY    73  58  59 W8        29.93R                  
VANCOUVER WA   CLEAR     71  57  61 NW7       29.92R                  
SCAPPOOSE      CLEAR     70  56  61 NW6       29.91S                  
HILLSBORO      PTCLDY    67  55  65 NW5       29.93R                  
AURORA         CLEAR     70  54  56 N6        29.94R                  
MCMINNVILLE    CLEAR     68  55  63 CALM      29.92R                  
SALEM          CLEAR     72  54  53 NW8       29.92R                  
CORVALLIS      CLEAR     69  56  62 NW12      29.93R                  
EUGENE         PTCLDY    72  54  53 NW5       29.92R                  
CRESWELL       PTCLDY    68  57  68 CALM      29.91R                  
$$

ORZ021-028-200500-
SOUTHWEST OREGON

  
CITY           SKY/WX    TMP DP  RH WIND       PRES   REMARKS
NORTH BEND     CLEAR     61  58  90 W5        29.98R                  
BROOKINGS      LGT RAIN  54  54 100 CALM      29.99R VSB 3/4          
ROSEBURG       CLEAR     78  56  46 NW5       29.91R                  
SEXTON SUMMIT  PTCLDY    64  53  67 NW7       30.04R                  
GRANTS PASS    FAIR      81  55  41 NW5       29.93R                  
MEDFORD        PTCLDY    83  51  33 N7        29.89R                  
$$

ORZ014>016-041-200500-
COLUMBIA GORGE

  
CITY           SKY/WX    TMP DP  RH WIND       PRES   REMARKS
TROUTDALE      CLEAR     71  56  58 W3        29.92R                  
HOOD RIVER     CLEAR     68  52  56 CALM      29.89R                  
THE DALLES     CLEAR     76  53  44 NW10      29.84R                  
$$

ORZ029>031-041-044-049-050-061>064-502-503-505>511-200500-
EASTERN OREGON

  
CITY           SKY/WX    TMP DP  RH WIND       PRES   REMARKS
MADRAS         CLEAR     72  46  40 NW9       29.97R                  
REDMOND        PTCLDY    78  47  33 NW12      29.97R                  
BEND           PTCLDY    77  46  33 NW12      29.98R                  
PRINEVILLE     CLEAR     73  39  29 NW7       29.97R                  
KLAMATH FALLS  CLEAR     70  48  45 SW3       30.01R                  
LAKEVIEW       CLEAR     58  39  49 E7        30.08R                  
HERMISTON      CLEAR     77  51  40 SE6       29.83R                  
PENDLETON      CLEAR     73  40  30 NE5       29.89R                  
JOHN DAY       PTCLDY    77  35  21 CALM      29.99R                  
MEACHAM        CLEAR     61  44  53 CALM      30.03R                  
LA GRANDE      CLEAR     70  45  40 N7        29.98R                  
BAKER CITY     CLEAR     69  48  47 NW8       29.99R                  
BURNS          PTCLDY    71  40  32 N9        29.98R                  
ROME             N/A     76  26  15 CALM      29.95R                  
ONTARIO        PTCLDY    76  54  46 NW6       29.85R                  
$$